OBJECT L

基本信息
目录编号:
63992
目录名称:
OBJECT L
国际标识:
2025-100L
轨道中心:
EARTH
物体状态:
在轨
发射日期:
2025-05-14 UTC
国别:
中国 (CN)
轨道信息
数据来源: 国际轨道数据
星历时间: 2026-09-05T12:44:18+0800
半长轴: 6879.632km
偏心率: 0.0009208
轨道倾角: 97.360°
近地点辐角: 34.524°
升交点赤经: 319.326°
平近点角: 325.660°
近地点: 495.16km
远地点: 507.83km
周期: 94.647分钟
每日圈数: 15.214407
详细信息
发射场:
JSC
轨道高度:
LEO
数据来源:
AOE Working Group
参考系:
TEME
时间系统:
UTC
历元类型:
SGP4
2D轨道图
3D轨道图
轨道高度分析图
轨道倾角分析图
轨道综合分析图
查看轨道综合分析图